K5TCS Weather Reports


Display with metric or nautical units.
time (UTC)temp
F
wind
direction
speed
MPH
gust
MPH
rain 1hr
in
rain 24hr
in
rain mn
in
humidity
%
barometer
mb
20260903145016 77 248 3.0 9.0 0.00 0.00 0.00 40 1028.1
20260903144016 76 248 2.0 9.0 0.00 0.00 0.00 40 1028.7
20260903143016 74 248 1.0 3.0 0.00 0.00 0.00 40 1028.2
20260903142016 71 248 1.0 4.0 0.00 0.00 0.00 40 1027.6
20260903141016 69 0.0 2.0 0.00 0.00 0.00 40 1027.1
20260903140016 67 0.0 3.0 0.00 0.00 0.00 40 1027.1
20260903135016 65 0.0 4.0 0.00 0.00 0.00 40 1026.6
20260903134036 63 0.0 3.0 0.00 0.00 0.00 41 1026.5
20260903133036 61 0.0 0.0 0.00 0.00 0.00 42 1026.1
20260903132015 60 0.0 0.0 0.00 0.00 0.00 43 1025.6
20260903131015 59 0.0 1.0 0.00 0.00 0.00 44 1025.5
20260903130036 59 0.0 3.0 0.00 0.00 0.00 44 1025.4
20260903125015 59 270 1.0 3.0 0.00 0.00 0.00 44 1025.2
20260903124016 59 270 1.0 3.0 0.00 0.00 0.00 44 1025.6
20260903123015 61 270 2.0 4.0 0.00 0.00 0.00 42 1026.1
20260903122015 60 270 1.0 4.0 0.00 0.00 0.00 42 1025.6
20260903121015 59 248 1.0 5.0 0.00 0.00 0.00 43 1026.0
20260903120036 59 248 1.0 4.0 0.00 0.00 0.00 42 1026.1
20260903115017 58 248 1.0 6.0 0.00 0.00 0.00 41 1025.4
20260903114017 58 248 1.0 5.0 0.00 0.00 0.00 41 1026.6
20260903113017 58 270 1.0 4.0 0.00 0.00 0.00 41 1026.7
20260903112017 58 0.0 3.0 0.00 0.00 0.00 40 1026.6
20260903111037 58 248 1.0 4.0 0.00 0.00 0.00 40 1026.9
20260903110017 57 0.0 1.0 0.00 0.00 0.00 40 1026.8
20260903105017 57 0.0 3.0 0.00 0.00 0.00 40 1027.0
20260903104017 57 0.0 4.0 0.00 0.00 0.00 41 1027.0
20260903103017 57 0.0 3.0 0.00 0.00 0.00 41 1027.1
20260903102037 57 0.0 4.0 0.00 0.00 0.00 41 1026.9
20260903101037 58 0.0 3.0 0.00 0.00 0.00 42 1027.3
20260903100017 58 0.0 0.0 0.00 0.00 0.00 42 1027.2
20260903095017 58 0.0 0.0 0.00 0.00 0.00 42 1027.4
20260903094017 58 248 1.0 4.0 0.00 0.00 0.00 42 1026.9
20260903093017 58 0.0 2.0 0.00 0.00 0.00 43 1027.0
20260903092037 59 0.0 1.0 0.00 0.00 0.00 43 1026.8
20260903091017 59 0.0 3.0 0.00 0.00 0.00 43 1026.9
20260903090017 59 0.0 3.0 0.00 0.00 0.00 43 1026.8
20260903085017 60 248 1.0 5.0 0.00 0.00 0.00 44 1027.0
20260903084037 60 248 2.0 7.0 0.00 0.00 0.00 43 1026.9
20260903083017 59 248 1.0 6.0 0.00 0.00 0.00 44 1026.7
20260903082037 59 248 1.0 5.0 0.00 0.00 0.00 44 1026.8
20260903081017 59 0.0 3.0 0.00 0.00 0.00 45 1026.6
20260903080017 60 0.0 3.0 0.00 0.00 0.00 45 1027.1
20260903075017 60 0.0 2.0 0.00 0.00 0.00 45 1027.2
20260903074017 60 0.0 2.0 0.00 0.00 0.00 45 1027.3
20260903073017 61 0.0 1.0 0.00 0.00 0.00 46 1027.4
20260903072017 61 0.0 2.0 0.00 0.00 0.00 46 1027.3
20260903071017 61 0.0 4.0 0.00 0.00 0.00 46 1026.9
20260903070037 61 0.0 2.0 0.00 0.00 0.00 46 1027.0
20260903065016 61 0.0 4.0 0.00 0.00 0.00 46 1027.0
20260903064016 60 0.0 3.0 0.00 0.00 0.00 47 1026.6
20260903063016 60 0.0 4.0 0.00 0.00 0.00 48 1026.5
20260903062017 60 0.0 1.0 0.00 0.00 0.00 49 1026.7
20260903061016 61 0.0 1.0 0.00 0.00 0.00 51 1027.3
20260903060117 62 0.0 0.0 0.00 0.00 0.00 53 1027.8
20260903055016 63 0.0 2.0 0.00 0.00 0.00 53 1027.9
20260903054016 64 248 1.0 7.0 0.00 0.00 0.00 52 1027.5
20260903053016 64 0.0 4.0 0.00 0.00 0.00 52 1027.4
20260903052016 64 0.0 1.0 0.00 0.00 0.00 53 1027.0
20260903051016 64 0.0 2.0 0.00 0.00 0.00 53 1027.7
20260903050016 64 0.0 3.0 0.00 0.00 0.00 54 1027.5
20260903045036 66 0.0 4.0 0.00 0.00 0.00 52 1027.3
20260903044016 66 248 1.0 6.0 0.00 0.00 0.00 51 1028.2
20260903043056 67 270 1.0 9.0 0.00 0.00 0.00 51 1028.3
20260903042016 67 270 1.0 4.0 0.00 0.00 0.00 51 1028.2
20260903041016 67 270 1.0 3.0 0.00 0.00 0.00 52 1027.8
20260903040016 67 0.0 4.0 0.00 0.00 0.00 52 1027.9
20260903035016 67 248 1.0 4.0 0.00 0.00 0.00 51 1027.9
20260903034016 67 0.0 2.0 0.00 0.00 0.00 52 1027.2
20260903033016 67 0.0 2.0 0.00 0.00 0.00 53 1027.3
20260903032036 68 0.0 3.0 0.00 0.00 0.00 52 1027.9
20260903031036 69 0.0 5.0 0.00 0.00 0.00 51 1027.0
20260903030016 68 0.0 3.0 0.00 0.00 0.00 52 1026.6
20260903025016 68 0.0 0.0 0.00 0.00 0.00 53 1026.4
20260903024016 69 0.0 0.0 0.00 0.00 0.00 53 1025.2
20260903023016 70 0.0 0.0 0.00 0.00 0.00 52 1025.5
20260903022016 71 0.0 0.0 0.00 0.00 0.00 50 1025.4
20260903021015 73 0.0 0.0 0.00 0.00 0.00 49 1025.1
20260903020036 73 0.0 0.0 0.00 0.00 0.00 47 1025.4
20260903015015 74 0.0 0.0 0.00 0.00 0.00 47 1025.2
20260903014036 74 0.0 0.0 0.00 0.00 0.00 47 1024.2
20260903013016 75 0.0 0.0 0.00 0.00 0.00 46 1024.3
20260903012036 76 0.0 0.0 0.00 0.00 0.00 46 1024.6
20260903011016 76 0.0 1.0 0.00 0.00 0.00 46 1024.3
20260903010016 76 0.0 5.0 0.00 0.00 0.00 46 1024.2
20260903005035 77 0.0 4.0 0.00 0.00 0.00 45 1024.3
20260903004016 77 45 1.0 4.0 0.00 0.00 0.00 45 1025.4
20260903003015 77 0.0 5.0 0.00 0.00 0.00 45 1025.0
20260903002016 77 45 2.0 7.0 0.00 0.00 0.00 44 1025.1
20260903001037 78 45 2.0 7.0 0.00 0.00 0.00 43 1025.5
20260903000017 78 68 2.0 10.0 0.00 0.00 0.00 43 1025.3
20260902235037 79 68 2.0 11.0 0.00 0.00 0.00 42 1025.3
20260902234017 81 68 4.0 13.0 0.00 0.00 0.00 41 1025.8
20260902233017 82 68 4.0 13.0 0.00 0.00 0.00 40 1026.2
20260902232017 84 45 4.0 14.0 0.00 0.00 0.00 38 1026.8
20260902231017 86 45 3.0 12.0 0.00 0.00 0.00 35 1027.3
20260902230037 87 270 2.0 10.0 0.00 0.00 0.00 33 1027.3
20260902225017 87 248 3.0 12.0 0.00 0.00 0.00 32 1027.1
20260902224017 87 248 3.0 13.0 0.00 0.00 0.00 34 1027.7
20260902223017 88 248 2.0 10.0 0.00 0.00 0.00 32 1027.6
20260902222017 87 270 5.0 15.0 0.00 0.00 0.00 33 1027.8
20260902221017 87 248 4.0 14.0 0.00 0.00 0.00 32 1027.8
20260902220017 88 225 4.0 11.0 0.00 0.00 0.00 33 1028.0
20260902215017 88 203 3.0 10.0 0.00 0.00 0.00 33 1028.3
20260902214037 87 270 4.0 15.0 0.00 0.00 0.00 33 1028.2
20260902213017 87 225 4.0 9.0 0.00 0.00 0.00 33 1028.5
20260902212017 86 248 2.0 10.0 0.00 0.00 0.00 33 1028.2
20260902211017 85 225 3.0 13.0 0.00 0.00 0.00 35 1027.9
20260902210017 85 203 3.0 15.0 0.00 0.00 0.00 34 1028.3
20260902205017 85 270 6.0 14.0 0.00 0.00 0.00 35 1028.3
20260902204057 84 203 4.0 14.0 0.00 0.01 0.00 35 1028.1
20260902203017 87 225 4.0 13.0 0.00 0.01 0.00 34 1029.0
20260902202037 85 248 5.0 12.0 0.00 0.01 0.00 35 1028.4
20260902201017 86 225 4.0 11.0 0.00 0.01 0.00 34 1029.2
20260902200037 85 248 4.0 13.0 0.00 0.02 0.00 36 1029.2
20260902195017 84 180 3.0 9.0 0.00 0.02 0.00 35 1028.9
20260902194016 84 248 4.0 13.0 0.00 0.03 0.00 36 1029.0
20260902193017 86 225 4.0 13.0 0.00 0.03 0.00 35 1029.6
20260902192017 84 225 3.0 11.0 0.00 0.05 0.00 37 1029.8
20260902191016 81 203 4.0 11.0 0.00 0.08 0.00 38 1029.1
20260902190016 82 248 4.0 10.0 0.00 0.13 0.00 37 1029.5
20260902185017 82 248 4.0 12.0 0.00 0.14 0.00 37 1030.0
20260902184016 80 225 2.0 10.0 0.00 0.14 0.00 40 1029.3
20260902183017 80 248 2.0 12.0 0.00 0.14 0.00 39 1029.3
20260902182016 80 248 3.0 12.0 0.00 0.14 0.00 38 1029.5
20260902181016 81 203 3.0 10.0 0.00 0.14 0.00 39 1030.5
20260902180017 81 248 2.0 12.0 0.00 0.14 0.00 38 1030.4
20260902175016 82 225 3.0 12.0 0.00 0.14 0.00 38 1030.7
20260902174017 80 248 4.0 13.0 0.00 0.14 0.00 39 1030.7
20260902173016 81 225 2.0 7.0 0.00 0.14 0.00 39 1031.1
20260902172036 78 248 3.0 9.0 0.00 0.14 0.00 40 1030.6
20260902171036 78 248 2.0 7.0 0.00 0.14 0.00 40 1030.2
20260902170016 77 225 3.0 11.0 0.00 0.14 0.00 42 1029.8
20260902165017 78 203 2.0 10.0 0.00 0.14 0.00 41 1030.2
20260902164016 79 248 3.0 12.0 0.00 0.14 0.00 40 1031.4
20260902163016 80 248 3.0 9.0 0.00 0.14 0.00 39 1031.4
20260902162016 81 203 1.0 7.0 0.00 0.14 0.00 39 1031.3
20260902161016 79 203 2.0 7.0 0.00 0.14 0.00 40 1031.4
20260902160056 78 203 2.0 9.0 0.00 0.14 0.00 40 1031.7
20260902155016 79 203 1.0 6.0 0.00 0.14 0.00 40 1031.6
20260902154016 78 203 1.0 4.0 0.00 0.14 0.00 40 1031.2
20260902153036 77 0.0 3.0 0.00 0.14 0.00 39 1031.1
20260902152016 76 0.0 7.0 0.00 0.14 0.00 39 1031.0
20260902151016 74 0.0 2.0 0.00 0.14 0.00 38 1031.4
20260902150016 73 0.0 0.0 0.00 0.14 0.00 37 1031.2